Sand Point, AK

3:16 PM AKDT on June 28, 2017 (GMT -0800)
Sand Point

Weather History for PASD - March, 2013

Change the Weather History Date:

Sunday, March 3, 2013

  Actual Average Record
Temperature  
Mean Temperature 34 °F -  
Max Temperature 39 °F 34 °F 44 °F (2015)
Min Temperature 30 °F 29 °F 14 °F (2012)
Degree Days  
Heating Degree Days 30    
Moisture  
Dew Point 33 °F    
Average Humidity 91    
Maximum Humidity 100    
Minimum Humidity 75    
Precipitation  
Precipitation 0.00 in - - ()
Sea Level Pressure  
Sea Level Pressure 29.75 in    
Wind  
Wind Speed 3 mph (NNW)    
Max Wind Speed 12 mph    
Max Gust Speed -    
Visibility 10 miles    
Events      
Averages and records for this station are not official NWS values.
T = Trace of Precipitation, MM = Missing Value Source: NWS Daily Summary

Daily Weather History Graph

Daily Weather History Graph

Search for Another Location

Airport or City:

Trip Planner

Search our weather history database for the weather conditions in past years. The results will help you decide how hot, cold, wet, or windy it might be!

Date:

Astronomy

Mar. 03, 2013 Rise Set
Actual Time 8:26 AM AKST 7:22 PM AKST
Civil Twilight 7:49 AM AKST 7:59 PM AKST
Nautical Twilight 7:07 AM AKST 8:41 PM AKST
Astronomical Twilight 6:24 AM AKST 9:24 PM AKST
Moon 2:20 AM AKST (3/3) 10:42 AM AKST (3/3)
Length of Visible Light 12h 09m
Length of Day
10h 56m
Waning Gibbous, 62% of the Moon is Illuminated
Mar 3
Waning Gibbous
Mar 4
Last Quarter
Mar 11
New
Mar 19
First Quarter
Mar 27
Full

Hourly Weather History & Observations

Time (AKST) Temp. Windchill Dew Point Humidity Pressure Visibility Wind Dir Wind Speed Gust Speed Precip Events Conditions
12:16 AM 35.6 °F - 33.8 °F 93% 29.49 in 10.0 mi Calm Calm - N/A   Clear
12:36 AM 33.8 °F - 33.8 °F 100% 29.49 in 10.0 mi Calm Calm - N/A   Clear
12:56 AM 33.8 °F - 32.0 °F 93% 29.50 in 10.0 mi Calm Calm - N/A   Partly Cloudy
1:16 AM 33.8 °F - 33.8 °F 100% 29.52 in 10.0 mi Calm Calm - N/A   Partly Cloudy
1:36 AM 33.8 °F - 33.8 °F 100% 29.53 in 10.0 mi Calm Calm - N/A   Clear
1:56 AM 33.8 °F 27.0 °F 33.8 °F 100% 29.54 in 10.0 mi NW 8.1 mph - N/A   Clear
2:16 AM 33.8 °F 28.6 °F 32.0 °F 93% 29.54 in 10.0 mi NW 5.8 mph - N/A   Partly Cloudy
2:36 AM 33.8 °F - 33.8 °F 100% 29.55 in 10.0 mi Calm Calm - N/A   Mostly Cloudy
2:56 AM 33.8 °F - 33.8 °F 100% 29.56 in 10.0 mi Calm Calm - N/A   Scattered Clouds
3:16 AM 33.8 °F 29.6 °F 33.8 °F 100% 29.57 in 10.0 mi North 4.6 mph - N/A   Scattered Clouds
3:36 AM 33.8 °F - 32.0 °F 93% 29.58 in 10.0 mi Calm Calm - N/A   Clear
3:56 AM 33.8 °F - 33.8 °F 100% 29.59 in 10.0 mi Calm Calm - N/A   Clear
4:16 AM 33.8 °F 29.6 °F 33.8 °F 100% 29.59 in 10.0 mi NNW 4.6 mph - N/A   Clear
4:36 AM 33.8 °F - 33.8 °F 100% 29.60 in 10.0 mi Calm Calm - N/A   Clear
4:56 AM 32.0 °F - 30.2 °F 93% 29.60 in 10.0 mi Calm Calm - N/A   Clear
5:36 AM 32.0 °F 26.4 °F 30.2 °F 93% 29.62 in 10.0 mi NNW 5.8 mph - N/A   Clear
5:56 AM 33.8 °F 28.6 °F 30.2 °F 87% 29.63 in 10.0 mi NNW 5.8 mph - N/A   Clear
6:16 AM 33.8 °F 28.6 °F 30.2 °F 87% 29.63 in 10.0 mi NW 5.8 mph - N/A   Clear
6:36 AM 33.8 °F - 30.2 °F 87% 29.63 in 10.0 mi Calm Calm - N/A   Clear
6:45 AM 32.0 °F 28.7 °F 30.2 °F 93% 29.64 in 10.0 mi NNE 3.5 mph - N/A   Clear
6:56 AM - - - N/A% - - North - - N/A   Unknown
7:16 AM 32.0 °F 28.7 °F 30.2 °F 93% 29.65 in 10.0 mi NE 3.5 mph - N/A   Clear
7:36 AM 30.2 °F - 30.2 °F 100% 29.66 in 10.0 mi Calm Calm - N/A   Clear
7:56 AM 33.8 °F - 30.2 °F 87% 29.67 in 10.0 mi Calm Calm - N/A   Clear
8:16 AM 30.2 °F - 30.2 °F 100% 29.69 in 10.0 mi Calm Calm - N/A   Partly Cloudy
8:36 AM 30.2 °F 21.9 °F 30.2 °F 100% 29.70 in 10.0 mi West 9.2 mph - N/A   Scattered Clouds
8:56 AM 32.0 °F 23.0 °F 30.2 °F 93% 29.71 in 10.0 mi West 11.5 mph - N/A   Scattered Clouds
9:16 AM 30.2 °F 21.9 °F 30.2 °F 100% 29.71 in 10.0 mi West 9.2 mph - N/A   Scattered Clouds
10:16 AM 32.0 °F 25.6 °F 30.2 °F 93% 29.73 in 10.0 mi WNW 6.9 mph - N/A   Scattered Clouds
10:56 AM 33.8 °F 28.6 °F 32.0 °F 93% 29.76 in 10.0 mi WNW 5.8 mph - N/A   Mostly Cloudy
11:16 AM 33.8 °F 27.7 °F 32.0 °F 93% 29.75 in 10.0 mi NNW 6.9 mph - N/A   Mostly Cloudy
11:36 AM 35.6 °F 30.7 °F 32.0 °F 87% 29.76 in 10.0 mi NNW 5.8 mph - N/A   Mostly Cloudy
12:16 PM 35.6 °F 29.2 °F 32.0 °F 87% 29.77 in 10.0 mi NW 8.1 mph - N/A   Mostly Cloudy
12:36 PM 37.4 °F 32.1 °F 32.0 °F 81% 29.78 in 10.0 mi NW 6.9 mph - N/A   Mostly Cloudy
12:56 PM 37.4 °F 32.1 °F 32.0 °F 81% 29.78 in 10.0 mi NW 6.9 mph - N/A   Mostly Cloudy
1:16 PM 37.4 °F 32.1 °F 33.8 °F 87% 29.78 in 10.0 mi WNW 6.9 mph - N/A   Mostly Cloudy
1:36 PM 37.4 °F 32.1 °F 33.8 °F 87% 29.78 in 10.0 mi NW 6.9 mph - N/A   Mostly Cloudy
1:56 PM 37.4 °F 32.8 °F 33.8 °F 87% 29.78 in 10.0 mi NW 5.8 mph - N/A   Scattered Clouds
2:16 PM 39.2 °F 34.2 °F 33.8 °F 81% 29.78 in 10.0 mi NNW 6.9 mph - N/A   Scattered Clouds
2:36 PM 39.2 °F 34.2 °F 33.8 °F 81% 29.79 in 10.0 mi NW 6.9 mph - N/A   Scattered Clouds
2:56 PM 39.2 °F 37.0 °F 33.8 °F 81% 29.78 in 10.0 mi NNW 3.5 mph - N/A   Partly Cloudy
3:16 PM 39.2 °F 37.0 °F 32.0 °F 75% 29.78 in 10.0 mi West 3.5 mph - N/A   Partly Cloudy
3:36 PM 39.2 °F 35.9 °F 32.0 °F 75% 29.79 in 10.0 mi NNW 4.6 mph - N/A   Partly Cloudy
3:56 PM 39.2 °F 33.6 °F 33.8 °F 81% 29.80 in 10.0 mi North 8.1 mph - N/A   Partly Cloudy
4:16 PM 39.2 °F 35.0 °F 33.8 °F 81% 29.82 in 10.0 mi WNW 5.8 mph - N/A   Partly Cloudy
4:36 PM 39.2 °F 33.0 °F 33.8 °F 81% 29.82 in 10.0 mi NNW 9.2 mph - N/A   Scattered Clouds
4:56 PM 39.2 °F 34.2 °F 33.8 °F 81% 29.83 in 10.0 mi North 6.9 mph - N/A   Scattered Clouds
5:16 PM 37.4 °F 32.8 °F 33.8 °F 87% 29.83 in 10.0 mi North 5.8 mph - N/A   Scattered Clouds
5:36 PM 37.4 °F 30.8 °F 33.8 °F 87% 29.84 in 10.0 mi North 9.2 mph - N/A   Scattered Clouds
5:56 PM 37.4 °F 29.8 °F 33.8 °F 87% 29.85 in 10.0 mi North 11.5 mph - N/A   Scattered Clouds
6:16 PM 37.4 °F 29.8 °F 33.8 °F 87% 29.86 in 10.0 mi NNW 11.5 mph - N/A   Scattered Clouds
6:36 PM 37.4 °F 30.8 °F 33.8 °F 87% 29.88 in 10.0 mi North 9.2 mph - N/A   Scattered Clouds
6:56 PM 37.4 °F 31.4 °F 33.8 °F 87% 29.87 in 10.0 mi North 8.1 mph - N/A   Scattered Clouds
7:16 PM 37.4 °F 32.1 °F 33.8 °F 87% 29.89 in 10.0 mi North 6.9 mph - N/A   Mostly Cloudy
7:36 PM 37.4 °F 34.9 °F 33.8 °F 87% 29.89 in 10.0 mi ENE 3.5 mph - N/A   Mostly Cloudy
7:56 PM 35.6 °F 30.7 °F 33.8 °F 93% 29.90 in 10.0 mi East 5.8 mph - N/A   Mostly Cloudy
8:16 PM 35.6 °F 31.7 °F 33.8 °F 93% 29.92 in 10.0 mi ENE 4.6 mph - N/A   Clear
8:36 PM 35.6 °F 31.7 °F 32.0 °F 87% 29.92 in 10.0 mi East 4.6 mph - N/A   Clear
8:56 PM 35.6 °F 32.8 °F 32.0 °F 87% 29.93 in 10.0 mi East 3.5 mph - N/A   Clear
9:16 PM 35.6 °F - 33.8 °F 93% 29.94 in 10.0 mi Calm Calm - N/A   Clear
9:36 PM 35.6 °F - 33.8 °F 93% 29.95 in 10.0 mi Calm Calm - N/A   Partly Cloudy
9:56 PM 35.6 °F 31.7 °F 33.8 °F 93% 29.95 in 10.0 mi NNE 4.6 mph - N/A   Partly Cloudy
10:16 PM 35.6 °F 31.7 °F 33.8 °F 93% 29.96 in 10.0 mi NE 4.6 mph - N/A   Clear
10:36 PM 35.6 °F 32.8 °F 33.8 °F 93% 29.97 in 10.0 mi ESE 3.5 mph - N/A   Partly Cloudy
10:56 PM 35.6 °F 32.8 °F 33.8 °F 93% 29.98 in 10.0 mi NE 3.5 mph - N/A   Scattered Clouds
11:16 PM 35.6 °F - 33.8 °F 93% 29.99 in 10.0 mi Calm Calm - N/A   Scattered Clouds
11:36 PM 35.6 °F 32.8 °F 33.8 °F 93% 30.00 in 10.0 mi ESE 3.5 mph - N/A   Mostly Cloudy
11:56 PM 35.6 °F - 33.8 °F 93% 30.00 in 10.0 mi Calm Calm - N/A   Overcast